Weather History for Swansboro, NC

Change the Weather History Date:

Friday, January 11, 2013

  Actual Average (KNKT) Record (KNKT)
Temperature  
Mean Temperature 57 °F -  
Max Temperature 66 °F 54 °F 72 °F (2014)
Min Temperature 48 °F 33 °F 19 °F (2004)
Degree Days  
Heating Degree Days 8    
Growing Degree Days 7 (Base 50)    
Moisture  
Dew Point 56 °F    
Average Humidity 91    
Maximum Humidity 100    
Minimum Humidity 71    
Precipitation  
Precipitation 0.28 in - - ()
Sea Level Pressure  
Sea Level Pressure 30.25 in    
Wind  
Wind Speed 6 mph (SSW)    
Max Wind Speed 12 mph    
Max Gust Speed 20 mph    
Visibility 4 miles    
Events Fog , Rain    
Averages and records for this station are not official NWS values.
T = Trace of Precipitation, MM = Missing Value Source: NWS Daily Summary

Daily Weather History Graph

Daily Weather History Graph

Search for Another Location

Airport:

Trip Planner

Search our weather history database for the weather conditions in past years. The results will help you decide how hot, cold, wet, or windy it might be!

Date:

Astronomy

Jan. 11, 2013 Rise Set
Actual Time 7:15 AM EST 5:16 PM EST
Civil Twilight 6:48 AM EST 5:44 PM EST
Nautical Twilight 6:16 AM EST 6:15 PM EST
Astronomical Twilight 5:46 AM EST 6:46 PM EST
Moon 6:48 AM EST (1/11) 5:30 PM EST (1/11)
Length of Visible Light 10h 56m
Length of Day
10h 01m
Waning Crescent, 0% of the Moon is Illuminated
Jan 11
Waning Crescent
Jan 11
New
Jan 18
First Quarter
Jan 26
Full
Feb 3
Last Quarter

Hourly Weather History & Observations

Time (EST) Temp. Dew Point Humidity Pressure Visibility Wind Dir Wind Speed Gust Speed Precip Events Conditions
12:57 AM 48.0 °F 39.0 °F 71% 30.44 in 10.0 mi NE 8.1 mph - N/A   Scattered Clouds
1:57 AM 48.0 °F 41.0 °F 77% 30.43 in 10.0 mi NE 8.1 mph - N/A   Partly Cloudy
2:57 AM 48.9 °F 42.1 °F 77% 30.40 in 10.0 mi ENE 8.1 mph - N/A   Overcast
3:57 AM 50.0 °F 43.0 °F 77% 30.38 in 10.0 mi NE 6.9 mph - N/A   Overcast
4:57 AM 48.9 °F 44.1 °F 83% 30.37 in 10.0 mi NE 6.9 mph - N/A   Clear
5:57 AM 50.0 °F 45.0 °F 83% 30.36 in 10.0 mi ENE 5.8 mph - N/A   Clear
6:57 AM 51.1 °F 46.9 °F 86% 30.36 in 10.0 mi NE 6.9 mph - N/A   Scattered Clouds
7:57 AM 54.0 °F 50.0 °F 86% 30.36 in 10.0 mi ENE 8.1 mph - N/A   Mostly Cloudy
8:57 AM 57.0 °F 51.1 °F 81% 30.38 in 10.0 mi East 8.1 mph - N/A   Mostly Cloudy
11:57 AM 66.0 °F 57.0 °F 73% 30.30 in 10.0 mi SE 11.5 mph - N/A   Mostly Cloudy
12:27 PM 66.2 °F 57.2 °F 73% 30.27 in 10.0 mi SSE 9.2 mph - N/A   Overcast
12:57 PM 66.9 °F 59.0 °F 76% 30.27 in 10.0 mi SE 10.4 mph - N/A   Mostly Cloudy
1:57 PM 64.9 °F 57.9 °F 78% 30.24 in 10.0 mi SE 11.5 mph - N/A   Mostly Cloudy
2:57 PM 64.0 °F 59.0 °F 84% 30.23 in 6.0 mi South 8.1 mph - 0.00 in Rain Light Rain
3:24 PM 62.6 °F 59.0 °F 88% 30.23 in 1.8 mi SW 8.1 mph 19.6 mph 0.06 in Rain Rain
3:29 PM 60.8 °F 59.0 °F 94% 30.23 in 0.8 mi SSW 8.1 mph - 0.11 in Rain Heavy Rain
3:41 PM 60.8 °F 60.8 °F 100% 30.23 in 1.0 mi SSW 4.6 mph - 0.22 in Rain Heavy Rain
3:57 PM 62.1 °F 61.0 °F 96% 30.23 in 2.0 mi Calm Calm - 0.28 in Rain Rain
4:08 PM 62.6 °F 60.8 °F 94% 30.22 in 8.0 mi WSW 3.5 mph - 0.00 in   Overcast
4:40 PM 62.6 °F 62.6 °F 100% 30.21 in 7.0 mi Calm Calm - 0.00 in   Scattered Clouds
4:57 PM 63.0 °F 63.0 °F 100% 30.22 in 7.0 mi Calm Calm - 0.00 in   Clear
5:17 PM 62.6 °F 60.8 °F 94% 30.21 in 2.5 mi Calm Calm - N/A   Mostly Cloudy
5:19 PM 62.6 °F 60.8 °F 94% 30.21 in 1.8 mi Calm Calm - N/A   Mostly Cloudy
5:30 PM 62.6 °F 60.8 °F 94% 30.21 in 0.5 mi Calm Calm - N/A Fog Fog
5:57 PM 59.0 °F 57.9 °F 96% 30.22 in 0.5 mi Calm Calm - N/A Fog Fog
6:03 PM 59.0 °F 57.2 °F 94% 30.21 in 0.2 mi Calm Calm - N/A Fog Fog
6:17 PM 57.2 °F 57.2 °F 100% 30.21 in 0.5 mi Calm Calm - N/A Fog Fog
6:28 PM 59.0 °F 57.2 °F 94% 30.21 in 0.5 mi Calm Calm - N/A Fog Fog
6:41 PM 60.8 °F 60.8 °F 100% 30.21 in 2.0 mi SSW 4.6 mph - N/A   Overcast
6:57 PM 61.0 °F 60.1 °F 97% 30.22 in 4.0 mi SW 5.8 mph - N/A   Overcast
7:33 PM 60.8 °F 59.0 °F 94% 30.20 in 1.8 mi SW 5.8 mph - N/A   Overcast
7:48 PM 60.8 °F 60.8 °F 100% 30.20 in 0.5 mi SW 4.6 mph - N/A Fog Fog
7:57 PM 60.1 °F 59.0 °F 96% 30.22 in 0.2 mi WSW 6.9 mph - N/A Fog Fog
8:19 PM 59.0 °F 57.2 °F 94% 30.20 in 0.5 mi WSW 4.6 mph - N/A Fog Fog
8:26 PM 57.2 °F 57.2 °F 100% 30.20 in 0.2 mi SW 4.6 mph - N/A Fog Fog
8:46 PM 57.2 °F 57.2 °F 100% 30.20 in 0.5 mi WSW 4.6 mph - N/A Fog Fog
8:57 PM 57.9 °F 57.0 °F 97% 30.21 in 0.5 mi SW 4.6 mph - N/A Fog Fog
9:23 PM 57.2 °F 57.2 °F 100% 30.18 in 0.5 mi SW 4.6 mph - N/A Fog Fog
9:57 PM 57.0 °F 57.0 °F 100% 30.20 in 0.5 mi Calm Calm - N/A Fog Fog
10:12 PM 57.2 °F 57.2 °F 100% 30.19 in 0.2 mi Calm Calm - N/A Fog Fog
10:35 PM 57.2 °F 55.4 °F 94% 30.18 in 0.5 mi WSW 4.6 mph - N/A Fog Fog
10:55 PM 55.4 °F 55.4 °F 100% 30.18 in 1.0 mi WSW 5.8 mph - N/A   Mist
10:57 PM 55.9 °F 55.9 °F 100% 30.19 in 1.0 mi WSW 5.8 mph - N/A   Mist
11:04 PM 57.2 °F 55.4 °F 94% 30.18 in 0.8 mi WSW 5.8 mph - N/A   Mist
11:13 PM 57.2 °F 55.4 °F 94% 30.18 in 1.2 mi SW 5.8 mph - N/A   Overcast